Weather History for KPIH - November, 2012

Change the Weather History Date:

Wednesday, November 28, 2012

  Actual Average Record
Temperature  
Mean Temperature 37 °F 29 °F  
Max Temperature 51 °F 38 °F 60 °F (2014)
Min Temperature 22 °F 20 °F -8 °F (1979)
Degree Days  
Heating Degree Days 28 36  
Month to date heating degree days 712 846  
Since 1 July heating degree days 1410 1653  
Cooling Degree Days 0 0  
Month to date cooling degree days 0 0  
Year to date cooling degree days 560 392  
Moisture  
Dew Point 28 °F    
Average Humidity 69    
Maximum Humidity 92    
Minimum Humidity 46    
Precipitation  
Precipitation T in 0.04 in 0.44 in (2010)
Month to date precipitation 1.28 1.03  
Year to date precipitation 8.87 10.81  
Snow  
Snow 0.00 in - - ()
Month to date snowfall 4.9  
Since 1 July snowfall 7.1  
Since 1 September snowfall 7.1  
Snow Depth 0.00 in    
Sea Level Pressure  
Sea Level Pressure 30.14 in    
Wind  
Wind Speed 4 mph (NE)    
Max Wind Speed 16 mph    
Max Gust Speed 25 mph    
Visibility 10 miles    
Events      
T = Trace of Precipitation, MM = Missing Value Source: NWS Daily Summary

Daily Weather History Graph

Daily Weather History Graph

Search for Another Location

Airport or City:

Trip Planner

Search our weather history database for the weather conditions in past years. The results will help you decide how hot, cold, wet, or windy it might be!

Date:

Astronomy

Nov. 28, 2012 Rise Set
Actual Time 7:38 AM MST 4:57 PM MST
Civil Twilight 7:07 AM MST 5:29 PM MST
Nautical Twilight 6:32 AM MST 6:04 PM MST
Astronomical Twilight 5:58 AM MST 6:38 PM MST
Moon 5:15 PM MST (11/28) 7:39 AM MST (11/28)
Length of Visible Light 10h 22m
Length of Day
9h 18m
Full, 100% of the Moon is Illuminated
Nov 28
Full
Dec 6
Last Quarter
Dec 13
New
Dec 19
First Quarter
Dec 28
Full

Hourly Weather History & Observations

Time (MST) Temp. Windchill Dew Point Humidity Pressure Visibility Wind Dir Wind Speed Gust Speed Precip Events Conditions
12:53 AM 26.1 °F 21.9 °F 24.1 °F 92% 30.27 in 9.0 mi NNW 3.5 mph - N/A   Clear
1:50 AM 26.6 °F - 24.8 °F 93% 30.20 in 2.5 mi Calm Calm - N/A   Clear
1:53 AM 27.0 °F - 24.1 °F 89% 30.25 in 4.0 mi Calm Calm - N/A   Clear
2:53 AM 28.0 °F - 26.1 °F 92% 30.23 in 10.0 mi Calm Calm - N/A   Clear
3:53 AM 27.0 °F 21.6 °F 25.0 °F 92% 30.23 in 10.0 mi ENE 4.6 mph - N/A   Clear
4:53 AM 27.0 °F - 25.0 °F 92% 30.24 in 10.0 mi Calm Calm - N/A   Clear
5:53 AM 28.0 °F - 26.1 °F 92% 30.24 in 10.0 mi Calm Calm - N/A   Clear
6:53 AM 25.0 °F 18.1 °F 23.0 °F 92% 30.25 in 10.0 mi North 5.8 mph - N/A   Clear
7:53 AM 25.0 °F 20.7 °F 23.0 °F 92% 30.27 in 10.0 mi SE 3.5 mph - N/A   Partly Cloudy
8:53 AM 30.0 °F 26.5 °F 25.0 °F 82% 30.25 in 10.0 mi NNE 3.5 mph - N/A   Partly Cloudy
9:53 AM 33.1 °F 28.7 °F 28.9 °F 85% 30.24 in 10.0 mi NNE 4.6 mph - N/A   Clear
10:53 AM 39.0 °F 34.8 °F 30.0 °F 70% 30.22 in 10.0 mi ENE 5.8 mph - N/A   Clear
11:53 AM 42.1 °F 37.1 °F 30.0 °F 62% 30.15 in 10.0 mi NE 8.1 mph - N/A   Clear
12:53 PM 46.9 °F - 30.0 °F 52% 30.11 in 10.0 mi ENE 6.9 mph - N/A   Clear
1:53 PM 48.0 °F - 30.0 °F 50% 30.07 in 10.0 mi NNE 5.8 mph - N/A   Clear
2:53 PM 48.0 °F - 30.9 °F 52% 30.03 in 10.0 mi Calm Calm - N/A   Partly Cloudy
3:53 PM 45.0 °F - 32.0 °F 60% 30.04 in 10.0 mi Calm Calm - N/A   Partly Cloudy
4:53 PM 42.1 °F 38.4 °F 30.9 °F 65% 30.04 in 10.0 mi North 5.8 mph - N/A   Partly Cloudy
5:53 PM 37.0 °F 31.6 °F 32.0 °F 82% 30.03 in 10.0 mi NNE 6.9 mph - N/A   Clear
6:53 PM 36.0 °F 29.6 °F 30.9 °F 82% 30.04 in 10.0 mi North 8.1 mph - N/A   Scattered Clouds
7:53 PM 33.1 °F 30.0 °F 30.0 °F 89% 30.05 in 10.0 mi North 3.5 mph - N/A   Clear
8:53 PM 35.1 °F 31.0 °F 30.9 °F 85% 30.02 in 10.0 mi South 4.6 mph - N/A   Overcast
9:53 PM 50.0 °F - 30.9 °F 48% 29.97 in 10.0 mi SSW 16.1 mph 21.9 mph N/A   Overcast
10:53 PM 41.0 °F 37.1 °F 30.9 °F 67% 30.01 in 10.0 mi SSW 5.8 mph - 0.00 in   Overcast
11:53 PM 39.9 °F - 30.9 °F 70% 30.00 in 10.0 mi Calm Calm - N/A   Mostly Cloudy